Wind_Speed
29 32 34 34 44 41 39 32 23 21 18 18 17 17 16 8 8 22 19 15 14 13 11 10 9 6 6 7 8 9 11 12 11 12 11 12 14 17 19 21 21 21 22
28 30 34 32 36 37 37 37 25 24 21 16 15 19 18 8 12 9 18 14 17 14 11 8 8 4 6 7 7 7 8 9 11 11 12 12 13 15 17 18 18 20 20
26 28 33 32 34 33 33 31 23 24 25 21 18 16 17 12 12 14 15 13 11 14 13 10 7 4 6 5 6 7 8 9 10 11 14 14 14 14 16 17 18 19 18
25 28 28 29 33 32 34 28 20 17 21 24 20 14 14 14 10 10 15 15 15 18 13 9 6 5 6 5 5 6 6 8 11 13 13 14 14 15 16 19 12 19 17
23 26 26 27 29 31 30 26 24 19 23 23 20 19 15 15 10 11 21 19 26 19 12 9 6 5 6 6 6 5 6 8 9 11 12 12 13 13 13 16 19 19 21
25 25 24 27 26 29 31 25 23 16 17 21 21 19 15 12 10 8 10 25 18 12 8 8 7 6 6 6 5 4 7 7 8 9 9 9 9 10 9 12 14 13 24
23 23 22 24 26 28 28 29 24 21 20 20 21 18 13 11 9 10 10 3 4 4 10 9 7 6 6 5 4 4 5 4 5 5 6 7 7 7 8 10 13 12 11
17 18 19 23 27 30 30 33 34 31 23 21 21 20 22 11 11 4 3 3 3 1 4 6 7 6 5 4 4 4 5 3 4 3 3 5 8 10 11 13 5 8 8
14 16 19 21 26 30 32 33 34 33 21 16 17 17 15 10 12 10 8 5 6 8 11 9 6 6 5 3 3 3 3 1 4 4 6 7 8 10 13 14 15 9 10
14 14 18 22 25 30 31 32 34 28 22 12 13 16 7 7 9 8 8 3 0 2 4 6 6 5 3 2 2 3 4 7 8 5 5 5 7 9 11 12 11 11 10
15 16 21 24 27 31 30 33 34 26 20 17 14 9 2 4 6 8 5 3 4 5 5 4 4 4 2 2 3 5 8 8 5 3 2 4 7 9 12 14 13 11 9
17 20 22 28 28 30 29 30 33 29 21 18 12 7 2 3 5 8 7 7 7 5 5 6 5 4 3 3 4 5 11 10 8 5 6 7 10 10 12 14 14 12 10
22 24 23 28 31 30 28 28 30 27 18 18 16 2 3 3 8 7 8 7 7 9 9 6 4 4 4 5 4 5 6 10 11 10 11 12 13 14 14 14 12 10 10
22 20 23 28 30 29 26 27 29 24 19 21 17 10 5 6 8 6 7 8 9 11 13 10 6 5 5 6 4 5 7 9 11 13 15 15 16 16 15 13 11 12 13
22 20 24 27 27 25 24 26 27 24 19 18 20 13 12 13 9 8 8 10 11 12 10 10 9 8 7 7 6 6 7 9 11 13 14 15 15 14 13 13 15 15 16
21 21 23 23 21 23 24 25 25 27 23 19 19 15 18 17 15 14 12 14 12 9 10 10 9 10 9 9 9 10 11 11 12 13 12 12 14 14 15 16 17 17 18
21 23 23 24 22 22 26 27 25 26 28 21 17 23 24 23 18 19 14 15 14 14 15 13 11 9 8 10 11 12 13 13 12 12 12 13 15 17 18 19 19 19 20
23 24 23 26 25 24 28 29 27 27 30 28 25 22 22 22 21 17 17 16 14 16 14 15 12 10 8 8 10 11 11 11 12 13 15 16 18 19 19 20 23 24 27
21 24 26 27 27 27 28 30 28 27 29 31 28 21 18 24 24 18 18 17 19 15 12 13 12 12 11 11 12 14 14 15 18 19 20 20 21 22 24 26 28 30 32
26 26 28 28 29 28 29 29 28 27 30 32 29 22 12 23 23 25 22 19 17 15 11 11 13 14 15 15 16 16 17 17 19 21 24 24 25 25 26 27 28 30 31
28 28 30 29 29 28 30 27 27 28 31 27 24 13 19 14 18 15 23 17 19 20 14 15 14 15 15 15 17 17 19 21 23 23 24 25 25 26 28 29 30 32 34
32 32 31 31 28 28 28 28 28 27 26 28 25 23 17 18 15 19 22 21 17 19 16 18 18 16 16 16 18 21 22 22 21 23 25 28 28 30 31 34 35 37 38
36 36 33 30 29 26 26 26 26 27 29 27 29 27 18 17 14 13 17 18 16 13 13 17 21 15 16 18 20 22 23 25 28 29 30 30 32 33 35 36 38 40 40
39 38 36 32 29 27 26 26 26 29 29 30 29 25 16 12 12 10 11 11 14 13 11 19 21 18 21 24 25 26 27 28 30 33 34 34 34 35 37 38 39 40 39
38 41 37 33 30 29 27 28 29 29 28 25 26 26 14 16 15 18 18 19 16 15 17 19 22 23 26 27 29 29 29 31 33 33 34 36 37 38 38 38 38 37 40
39 39 35 31 30 30 29 29 30 30 27 24 21 24 22 20 19 20 23 22 23 23 22 23 24 26 28 28 30 31 32 33 34 36 36 39 39 38 36 34 36 39 39
Wind_Direction
337 345 345 343 346 352 350 356 354 10 8 7 349 347 346 305 276 213 221 220 219 208 205 215 220 216 238 246 250 253 256 257 249 257 261 261 268 267 266 267 267 269 267
341 349 343 343 349 343 348 350 348 9 7 4 355 357 351 288 210 213 209 228 231 201 199 196 206 193 249 250 254 250 246 252 262 269 272 272 270 268 266 267 267 274 270
340 346 343 349 353 349 350 350 349 0 357 357 358 356 354 312 271 239 215 236 218 204 194 192 189 222 244 238 230 233 245 260 273 278 280 282 278 271 270 267 271 271 277
337 340 346 355 356 354 355 359 349 348 357 354 352 343 350 347 296 266 236 228 223 196 196 195 205 246 236 228 240 246 261 280 286 289 288 285 281 275 267 262 267 266 248
333 335 340 344 353 353 357 5 0 350 346 351 342 342 335 352 328 246 223 238 229 186 193 200 221 241 223 228 229 242 267 274 285 295 297 294 288 278 265 258 261 254 262
326 332 341 347 351 351 357 2 356 349 338 337 341 337 339 333 342 343 272 224 214 172 194 209 220 228 213 213 221 249 276 288 309 311 311 304 296 282 277 273 265 246 260
327 339 347 349 346 344 0 358 359 351 342 327 324 330 335 308 332 343 9 171 53 144 219 202 212 210 201 216 246 264 292 306 317 328 324 324 325 312 297 286 289 286 299
337 345 349 347 344 347 357 355 350 340 329 322 323 314 316 273 247 285 153 7 209 228 213 207 209 201 203 209 238 285 288 301 281 315 5 29 24 10 13 23 313 335 313
337 343 344 347 341 345 349 351 346 342 323 318 311 324 305 241 236 236 220 197 183 200 212 207 200 208 206 207 243 269 272 274 130 103 75 50 35 20 25 24 28 35 41
329 338 338 340 341 340 347 349 345 347 339 321 313 336 293 258 240 227 208 195 192 198 184 193 201 193 210 256 260 224 171 142 132 106 61 35 30 10 10 7 6 9 20
326 333 330 338 336 336 342 349 344 344 334 334 336 341 250 252 260 264 244 179 200 201 197 194 207 197 190 247 246 199 181 169 168 138 60 356 352 354 348 345 344 338 330
312 327 328 328 334 333 340 343 342 341 335 342 353 339 215 248 276 276 278 264 248 242 218 209 214 227 239 246 252 224 215 222 234 251 284 303 319 324 326 328 327 327 334
312 318 322 322 329 333 335 343 342 339 355 354 353 72 130 260 268 269 266 278 285 264 242 220 231 245 253 253 246 237 237 238 246 259 279 292 302 306 310 312 313 312 315
306 313 318 320 324 325 329 337 343 333 337 339 329 327 296 248 246 253 268 276 275 263 246 239 237 254 259 258 254 252 249 252 262 273 282 289 295 298 299 299 295 294 300
302 308 316 319 322 315 320 327 336 336 333 328 317 299 292 273 251 244 244 265 271 264 262 256 257 256 262 266 264 262 261 265 272 278 284 288 290 291 292 291 294 300 305
306 316 320 321 322 313 312 325 331 334 330 329 307 291 283 273 261 248 244 254 265 274 274 270 263 260 263 265 273 281 282 281 281 280 283 291 294 291 289 292 295 297 300
308 316 318 318 319 309 307 310 321 327 329 320 318 294 288 264 262 248 252 258 267 273 274 278 274 267 257 261 266 274 278 279 280 284 289 291 294 297 297 297 296 297 298
310 315 316 312 311 307 301 305 312 315 321 318 314 311 273 249 249 247 250 256 264 273 261 262 262 262 259 263 266 267 271 277 283 287 290 294 295 294 295 297 300 301 300
309 313 313 315 307 302 299 299 306 311 313 315 312 299 252 241 238 242 243 254 266 267 248 246 244 253 265 275 280 283 284 287 288 291 292 294 296 296 295 295 295 298 299
301 307 313 311 309 305 300 302 306 307 311 312 312 294 246 236 236 244 235 254 251 243 239 243 247 260 271 280 285 287 287 289 292 293 294 294 294 296 299 302 303 301 300
298 302 308 305 305 304 299 302 303 309 309 309 312 275 226 225 238 274 226 240 245 242 231 239 247 264 275 286 290 293 295 291 287 286 288 293 297 302 301 300 299 300 302
296 300 304 305 305 307 302 304 304 305 310 318 305 296 292 270 276 278 239 247 238 228 239 251 256 263 273 283 288 289 290 289 289 291 292 294 296 297 299 300 302 303 304
293 296 299 300 298 301 299 303 297 302 307 311 308 282 291 269 250 241 216 223 236 243 262 261 266 268 275 280 281 286 290 293 295 295 295 297 300 301 302 303 304 304 304
286 292 294 292 294 298 298 296 300 301 298 308 311 277 277 267 248 248 255 261 268 277 289 266 261 273 287 290 290 291 292 292 293 295 296 297 298 300 301 303 303 304 305
287 291 294 284 287 290 294 293 298 301 305 304 304 275 274 289 300 298 295 291 286 280 279 279 279 282 285 286 288 289 292 293 293 294 297 299 300 301 302 302 302 302 304
291 289 282 277 281 286 289 294 295 300 307 304 306 283 267 262 265 267 281 284 286 287 285 282 283 283 284 287 290 293 293 293 295 297 299 300 300 299 299 297 301 302 303
Height
5919 5910 5910 5905 5896 5891 5893 5893 5889 5879 5875 5869 5870 5868 5865 5866 5867 5871 5873 5875 5877 5878 5879 5880 5881 5883 5885 5886 5887 5889 5891 5892 5893 5893 5893 5893 5893 5893 5892 5892 5893 5893 5892
5917 5915 5910 5909 5902 5900 5897 5890 5884 5878 5875 5874 5872 5868 5866 5868 5867 5867 5869 5872 5874 5876 5878 5880 5881 5882 5883 5884 5886 5887 5889 5889 5889 5889 5890 5889 5891 5889 5888 5888 5886 5888 5889
5917 5918 5912 5907 5906 5902 5898 5890 5884 5879 5879 5875 5872 5870 5871 5869 5868 5869 5869 5870 5872 5874 5876 5877 5879 5881 5882 5883 5884 5885 5886 5886 5886 5886 5886 5885 5885 5885 5884 5884 5883 5884 5883
5917 5916 5913 5909 5904 5901 5895 5889 5884 5881 5878 5875 5872 5871 5871 5871 5868 5867 5868 5869 5872 5873 5874 5875 5877 5878 5879 5880 5881 5882 5883 5883 5882 5882 5882 5881 5881 5881 5881 5862 5875 5879 5879
5916 5915 5913 5910 5906 5900 5894 5888 5884 5880 5879 5877 5875 5872 5870 5868 5868 5868 5865 5867 5869 5868 5871 5874 5875 5876 5877 5878 5879 5880 5881 5880 5880 5879 5879 5878 5877 5876 5876 5876 5876 5875 5875
5911 5913 5909 5905 5903 5899 5893 5888 5884 5881 5878 5876 5876 5873 5871 5869 5868 5866 5865 5864 5865 5866 5870 5872 5873 5875 5876 5876 5877 5877 5878 5878 5876 5876 5876 5875 5874 5874 5873 5872 5871 5872 5872
5911 5909 5907 5903 5899 5896 5892 5887 5882 5879 5875 5873 5870 5869 5869 5869 5869 5867 5865 5864 5866 5867 5870 5870 5872 5874 5875 5875 5875 5876 5876 5875 5875 5875 5874 5874 5872 5871 5871 5869 5866 5867 5863
5912 5908 5904 5899 5895 5892 5888 5883 5879 5875 5871 5869 5867 5866 5865 5864 5865 5867 5866 5867 5868 5868 5867 5869 5871 5872 5873 5873 5874 5874 5875 5874 5874 5875 5874 5873 5872 5871 5869 5864 5865 5866 5865
5910 5907 5903 5900 5897 5892 5888 5884 5879 5874 5868 5864 5864 5862 5861 5860 5864 5866 5866 5865 5867 5867 5868 5868 5869 5870 5872 5871 5872 5873 5874 5873 5873 5874 5874 5873 5873 5871 5870 5869 5868 5867 5866
5907 5905 5902 5899 5896 5892 5888 5885 5879 5872 5866 5865 5861 5859 5859 5861 5865 5866 5864 5864 5865 5866 5866 5866 5868 5868 5869 5870 5871 5872 5872 5872 5873 5873 5873 5873 5872 5871 5870 5869 5869 5868 5867
5905 5902 5898 5897 5893 5889 5885 5881 5875 5870 5867 5863 5861 5857 5859 5861 5863 5865 5865 5863 5865 5866 5866 5866 5866 5866 5867 5868 5868 5869 5870 5872 5872 5872 5872 5872 5871 5870 5870 5868 5868 5867 5866
5903 5901 5897 5893 5891 5886 5883 5879 5874 5869 5863 5861 5858 5856 5857 5859 5862 5863 5863 5863 5863 5863 5864 5864 5865 5865 5865 5866 5866 5866 5868 5869 5870 5870 5870 5870 5869 5868 5868 5867 5866 5865 5864
5900 5898 5895 5891 5888 5885 5881 5878 5873 5868 5864 5862 5861 5859 5858 5860 5862 5862 5863 5862 5862 5863 5863 5862 5862 5862 5863 5864 5864 5864 5866 5867 5868 5868 5868 5867 5866 5865 5864 5863 5863 5862 5862
5898 5895 5893 5889 5886 5882 5879 5876 5872 5868 5865 5863 5862 5860 5861 5860 5861 5860 5860 5862 5862 5863 5862 5861 5860 5860 5861 5862 5862 5862 5863 5864 5865 5865 5865 5863 5862 5861 5861 5859 5859 5858 5858
5894 5893 5890 5886 5883 5879 5876 5873 5871 5868 5865 5862 5860 5858 5859 5860 5859 5858 5858 5860 5860 5861 5860 5859 5859 5859 5859 5860 5860 5861 5861 5861 5861 5861 5861 5860 5859 5858 5857 5856 5855 5855 5854
5890 5888 5885 5883 5880 5875 5872 5870 5868 5865 5862 5861 5857 5857 5857 5856 5857 5856 5855 5857 5858 5857 5857 5857 5857 5857 5858 5858 5858 5859 5859 5858 5858 5858 5857 5857 5856 5855 5854 5853 5852 5851 5849
5885 5883 5881 5878 5877 5873 5869 5867 5865 5862 5859 5858 5856 5855 5852 5852 5852 5853 5853 5854 5855 5854 5854 5854 5854 5854 5854 5854 5854 5856 5856 5856 5855 5855 5854 5853 5852 5852 5851 5849 5848 5846 5845
5881 5877 5876 5873 5873 5871 5866 5863 5861 5859 5856 5853 5850 5847 5844 5848 5847 5848 5848 5849 5850 5850 5849 5850 5851 5851 5851 5851 5851 5851 5852 5852 5853 5851 5851 5850 5849 5848 5847 5846 5845 5843 5840
5876 5873 5870 5868 5867 5866 5863 5859 5857 5854 5851 5847 5843 5840 5839 5840 5841 5842 5842 5844 5845 5845 5845 5846 5847 5848 5848 5848 5848 5849 5849 5849 5849 5848 5846 5844 5844 5843 5842 5840 5839 5837 5835
5870 5868 5866 5864 5861 5860 5857 5854 5851 5849 5846 5842 5837 5833 5833 5832 5834 5833 5832 5837 5839 5840 5841 5842 5843 5843 5844 5844 5844 5845 5844 5844 5844 5843 5841 5839 5837 5836 5835 5834 5832 5830 5827
5863 5863 5861 5859 5856 5854 5852 5850 5847 5845 5842 5838 5834 5829 5828 5820 5829 5817 5821 5828 5833 5835 5836 5837 5838 5838 5839 5839 5839 5839 5839 5838 5838 5837 5836 5834 5831 5829 5828 5826 5824 5821 5818
5857 5856 5855 5853 5851 5848 5846 5844 5842 5840 5838 5835 5832 5828 5825 5825 5824 5823 5824 5826 5827 5829 5831 5833 5833 5833 5834 5834 5834 5834 5834 5834 5832 5830 5828 5826 5823 5820 5819 5818 5815 5812 5810
5851 5850 5849 5847 5846 5843 5840 5839 5837 5835 5833 5832 5830 5828 5825 5823 5824 5824 5822 5823 5824 5824 5826 5827 5828 5828 5828 5828 5828 5828 5827 5826 5824 5823 5821 5818 5817 5814 5811 5808 5806 5803 5800
5843 5842 5842 5840 5838 5836 5835 5833 5832 5829 5827 5826 5824 5823 5822 5821 5821 5821 5821 5821 5821 5821 5821 5821 5822 5822 5823 5822 5822 5821 5819 5818 5817 5816 5813 5811 5808 5806 5803 5800 5797 5793 5790
5836 5834 5834 5833 5831 5829 5828 5826 5825 5823 5821 5819 5818 5818 5817 5817 5817 5817 5816 5816 5815 5816 5816 5816 5816 5816 5816 5816 5815 5813 5812 5811 5809 5807 5805 5802 5799 5796 5794 5790 5787 5784 5781
5826 5826 5825 5824 5823 5822 5821 5820 5818 5817 5815 5813 5813 5814 5814 5814 5814 5813 5813 5812 5811 5810 5810 5809 5810 5809 5809 5807 5806 5804 5803 5801 5800 5798 5794 5792 5789 5786 5784 5781 5779 5774 5770